Weather History for Milwaukee Timmerman, WI

Change the Weather History Date:

Sunday, August 25, 2013

  Actual Average Record
Temperature  
Mean Temperature 78 °F -  
Max Temperature 89 °F 81 °F 98 °F (1948)
Min Temperature 68 °F 60 °F 42 °F (1958)
Cooling Degree Days 14    
Growing Degree Days 28 (Base 50)    
Moisture  
Dew Point 58 °F    
Average Humidity 57    
Maximum Humidity 73    
Minimum Humidity 33    
Precipitation  
Precipitation 0.00 in - - ()
Sea Level Pressure  
Sea Level Pressure 30.18 in    
Wind  
Wind Speed 9 mph (SSW)    
Max Wind Speed 17 mph    
Max Gust Speed 25 mph    
Visibility 10 miles    
Events      
Averages and records for this station are not official NWS values.
T = Trace of Precipitation, MM = Missing Value Source: NWS Daily Summary

Daily Weather History Graph

Daily Weather History Graph

Search for Another Location

Airport:

Trip Planner

Search our weather history database for the weather conditions in past years. The results will help you decide how hot, cold, wet, or windy it might be!

Date:

Astronomy

Aug. 25, 2013 Rise Set
Actual Time 6:09 AM CDT 7:38 PM CDT
Civil Twilight 5:39 AM CDT 8:08 PM CDT
Nautical Twilight 5:03 AM CDT 8:43 PM CDT
Astronomical Twilight 4:24 AM CDT 9:22 PM CDT
Moon 9:59 PM CDT (8/25) 11:20 AM CDT (8/25)
Length of Visible Light 14h 28m
Length of Day
13h 29m
Waning Gibbous, 75% of the Moon is Illuminated
Aug 25
Waning Gibbous
Aug 28
Last Quarter
Sep 5
New
Sep 12
First Quarter
Sep 19
Full

Hourly Weather History & Observations

Time (CDT) Temp. Heat Index Dew Point Humidity Pressure Visibility Wind Dir Wind Speed Gust Speed Precip Events Conditions
12:15 AM 69.8 °F - 57.2 °F 64% 30.21 in 10.0 mi South 8.1 mph - N/A   Clear
12:35 AM 69.8 °F - 57.2 °F 64% 30.21 in 10.0 mi South 6.9 mph - N/A   Clear
12:55 AM 68.0 °F - 57.2 °F 68% 30.21 in 10.0 mi South 5.8 mph - N/A   Clear
1:15 AM 68.0 °F - 57.2 °F 68% 30.21 in 10.0 mi South 6.9 mph - N/A   Clear
1:35 AM 68.0 °F - 55.4 °F 64% 30.21 in 10.0 mi South 6.9 mph - N/A   Clear
1:55 AM 68.0 °F - 55.4 °F 64% 30.21 in 10.0 mi South 8.1 mph - N/A   Clear
2:15 AM 68.0 °F - 55.4 °F 64% 30.20 in 10.0 mi South 8.1 mph - N/A   Clear
2:35 AM 68.0 °F - 55.4 °F 64% 30.20 in 10.0 mi South 6.9 mph - N/A   Clear
2:55 AM 69.8 °F - 53.6 °F 56% 30.21 in 10.0 mi SSW 10.4 mph - N/A   Clear
3:15 AM 69.8 °F - 51.8 °F 53% 30.21 in 10.0 mi SSW 12.7 mph 16.1 mph N/A   Clear
3:35 AM 69.8 °F - 51.8 °F 53% 30.21 in 10.0 mi South 8.1 mph - N/A   Clear
3:55 AM 69.8 °F - 51.8 °F 53% 30.20 in 10.0 mi SSW 9.2 mph - N/A   Clear
4:15 AM 69.8 °F - 51.8 °F 53% 30.20 in 10.0 mi South 8.1 mph - N/A   Clear
4:35 AM 68.0 °F - 51.8 °F 56% 30.21 in 10.0 mi SSW 5.8 mph - N/A   Clear
4:55 AM 68.0 °F - 51.8 °F 56% 30.21 in 10.0 mi SSW 5.8 mph - N/A   Clear
5:15 AM 68.0 °F - 51.8 °F 56% 30.21 in 10.0 mi SSW 8.1 mph - N/A   Clear
5:35 AM 68.0 °F - 51.8 °F 56% 30.21 in 10.0 mi SSW 6.9 mph - N/A   Clear
5:55 AM 68.0 °F - 51.8 °F 56% 30.21 in 10.0 mi SSW 6.9 mph - N/A   Clear
6:15 AM 68.0 °F - 53.6 °F 60% 30.22 in 10.0 mi SSW 5.8 mph - N/A   Clear
6:35 AM 68.0 °F - 53.6 °F 60% 30.22 in 10.0 mi SSW 6.9 mph - N/A   Clear
6:45 AM 68.0 °F - 55.4 °F 64% 30.22 in 10.0 mi SSW 5.8 mph - N/A   Clear
6:55 AM 68.0 °F - 53.6 °F 60% 30.23 in 10.0 mi SSW 4.6 mph - N/A   Clear
7:45 AM 69.8 °F - 55.4 °F 60% 30.23 in 10.0 mi SSW 5.8 mph - N/A   Clear
9:45 AM 78.8 °F - 60.8 °F 54% 30.21 in 10.0 mi SW 8.1 mph 19.6 mph N/A   Clear
10:45 AM 80.6 °F 81.8 °F 62.6 °F 54% 30.21 in 10.0 mi WSW 11.5 mph - N/A   Clear
11:45 AM 84.2 °F 85.0 °F 62.6 °F 48% 30.18 in 10.0 mi WSW 17.3 mph - N/A   Clear
12:45 PM 86.0 °F 87.3 °F 64.4 °F 48% 30.17 in 10.0 mi WSW 13.8 mph 25.3 mph N/A   Clear
1:50 PM 87.8 °F 87.6 °F 60.8 °F 40% 30.15 in 10.0 mi WSW 13.8 mph 24.2 mph N/A   Clear
2:45 PM 89.6 °F 90.1 °F 62.6 °F 40% 30.14 in 10.0 mi SSW 11.5 mph 17.3 mph N/A   Clear
3:45 PM 89.6 °F 88.1 °F 57.2 °F 33% 30.13 in 10.0 mi SSW 16.1 mph 23.0 mph N/A   Clear
4:45 PM 87.8 °F 86.5 °F 57.2 °F 35% 30.11 in 10.0 mi SW 13.8 mph 21.9 mph N/A   Clear
5:45 PM 87.8 °F 86.5 °F 57.2 °F 35% 30.11 in 10.0 mi SW 17.3 mph 24.2 mph N/A   Clear
6:45 PM 84.2 °F 83.5 °F 57.2 °F 40% 30.11 in 10.0 mi SW 10.4 mph - N/A   Clear
7:45 PM 82.4 °F 83.4 °F 62.6 °F 51% 30.11 in 10.0 mi SW 9.2 mph - N/A   Clear
8:45 PM 80.6 °F 82.3 °F 64.4 °F 58% 30.12 in 10.0 mi SSW 10.4 mph - N/A   Clear
9:15 PM 78.8 °F - 64.4 °F 61% 30.13 in 10.0 mi SW 11.5 mph - N/A   Clear
9:35 PM 78.8 °F - 64.4 °F 61% 30.14 in 10.0 mi SW 9.2 mph 18.4 mph N/A   Clear
9:55 PM 77.0 °F - 64.4 °F 65% 30.14 in 10.0 mi SSW 9.2 mph - N/A   Clear
10:15 PM 77.0 °F - 64.4 °F 65% 30.14 in 10.0 mi SSW 9.2 mph - N/A   Clear
10:35 PM 77.0 °F - 64.4 °F 65% 30.14 in 10.0 mi SW 10.4 mph 16.1 mph N/A   Clear
10:55 PM 77.0 °F - 66.2 °F 69% 30.14 in 10.0 mi SW 9.2 mph - N/A   Clear
11:15 PM 75.2 °F - 66.2 °F 73% 30.13 in 10.0 mi SW 10.4 mph - N/A   Clear
11:35 PM 75.2 °F - 66.2 °F 73% 30.13 in 10.0 mi SW 9.2 mph - N/A   Clear
11:55 PM 75.2 °F - 64.4 °F 69% 30.12 in 10.0 mi SW 10.4 mph - N/A   Clear